This demonstration page uses our WeatherBlox Daily Observations layout. Learn more.

Left ArrowRight Arrow

39.51506, -84.39828

Hourly Observations for September 5, 2015

Temp ( °F °C ) Dew Point ( °F °C ) Humidity (%) Winds ( mph kmh ) Pressure ( in mb ) Visibility ( mi km ) Precip ( " mm )
12:15 am 00:15 Clear 69 20.8 65 18.2 85 85 Calm 30.09 1019 10 16.0934 0 0
12:35 am 00:35 Clear 69 20.8 65 18.5 87 87 Calm 30.09 1019 10 16.0934 0 0
12:55 am 00:55 Clear 69 20.8 65 18.6 87 87 Calm 30.09 1019 10 16.0934 0 0
1:15 am 01:15 Clear 69 20.8 65 18.6 87 87 Calm 30.06 1018 10 16.0934 0 0
1:35 am 01:35 Clear 69 20.8 66 18.7 88 88 Calm 30.06 1018 10 16.0934 0 0
1:55 am 01:55 Clear 69 20.8 66 18.7 88 88 Calm 30.06 1018 10 16.0934 0 0
2:15 am 02:15 Clear 69 20.8 66 18.7 88 88 Calm 30.06 1018 10 16.0934 0 0
2:35 am 02:35 Clear 69 20.8 66 19 90 90 Calm 30.06 1018 10 16.0934 0 0
2:55 am 02:55 Clear 69 20.4 65 18.5 89 89 Calm 30.06 1018 7 11.26538 0 0
3:15 am 03:15 Clear 67 19.5 64 17.5 88 88 Calm 30.06 1018 7 11.26538 0 0
3:35 am 03:35 Clear 67 19.5 64 17.5 88 88 Calm 30.06 1018 7 11.26538 0 0
3:55 am 03:55 Clear with Mist and Fog 67 19.5 64 17.6 89 89 Calm 30.06 1018 5 8.0467 0 0
4:15 am 04:15 Clear with Mist and Fog 65 18.5 62 16.7 89 89 Calm 30.09 1019 5 8.0467 0 0
4:35 am 04:35 Clear 64 18 61 16.3 90 90 Calm 30.09 1019 7 11.26538 0 0
4:55 am 04:55 Clear 66 19 63 17.3 90 90 Calm 30.09 1019 7 11.26538 0 0
5:15 am 05:15 Clear with Mist and Fog 66 18.8 63 17 89 89 Calm 30.09 1019 5 8.0467 0 0
5:35 am 05:35 Clear 64 18 61 16.3 90 90 Calm 30.12 1020 7 11.26538 0 0
5:55 am 05:55 Partly Cloudy with Mist and Fog 64 18 61 16.3 90 90 Calm 30.12 1020 3 4.82802 0 0
6:15 am 06:15 Mostly Cloudy 64 18 61 16.3 90 90 Calm 30.12 1020 7 11.26538 0 0
6:35 am 06:35 Mostly Cloudy 64 18 61 16.3 90 90 Calm 30.12 1020 7 11.26538 0 0
6:55 am 06:55 Clear 64 18 61 16.3 90 90 Calm 30.12 1020 7 11.26538 0 0
7:15 am 07:15 Partly Cloudy with Mist and Fog 64 18 61 16.3 90 90 Calm 30.12 1020 5 8.0467 0 0
7:35 am 07:35 Partly Cloudy with Mist and Fog 64 18 61 16.3 90 90 Calm 30.12 1020 4 6.43736 0 0
7:55 am 07:55 Partly Cloudy 65 18.2 62 16.7 91 91 Calm 30.15 1021 7 11.26538 0 0
8:15 am 08:15 Partly Cloudy 67 19.5 64 17.7 89 89 Calm 30.15 1021 10 16.0934 0 0
8:35 am 08:35 Sunny 69 20.8 66 19 90 90 Calm 30.15 1021 10 16.0934 0 0
8:55 am 08:55 Sunny 69 20.8 65 18.6 87 87 ENE 3 6 30.15 1021 10 16.0934 0 0
9:15 am 09:15 Sunny 71 21.6 66 19 85 85 Calm 30.15 1021 10 16.0934 0 0
9:35 am 09:35 Sunny 74 23.6 69 20.4 82 82 Calm 30.15 1021 10 16.0934 0 0
9:55 am 09:55 Sunny 74 23.6 67 19.6 78 78 NE 3 6 30.15 1021 10 16.0934 0 0
10:15 am 10:15 Sunny 74 23.6 66 18.9 75 75 Calm 30.15 1021 10 16.0934 0 0
10:35 am 10:35 Sunny 77 25.1 66 18.9 69 69 Calm 30.15 1021 10 16.0934 0 0
10:55 am 10:55 Sunny 78 25.3 66 19 68 68 Calm 30.15 1021 10 16.0934 0 0
11:15 am 11:15 Sunny 80 26.5 66 18.9 63 63 NE 3 6 30.15 1021 10 16.0934 0 0
11:35 am 11:35 Sunny 81 27.2 66 19 61 61 NE 3 6 30.15 1021 10 16.0934 0 0
11:55 am 11:55 Sunny 82 28 66 19 58 58 Calm 30.15 1021 10 16.0934 0 0
12:15 pm 12:15 Sunny 83 28.6 66 18.9 56 56 NNE 6 9 30.15 1021 10 16.0934 0 0
12:35 pm 12:35 Sunny with Light Rain 85 29.4 65 18.6 52 52 Calm 30.15 1021 10 16.0934 0 0
12:55 pm 12:55 Sunny 90 32 68 19.9 49 49 ENE 3 6 30.09 1019 10 16.0934 0 0
1:15 pm 13:15 Sunny 90 32.1 67 19.3 47 47 SW 6 9 30.09 1019 10 16.0934 0 0
1:35 pm 13:35 Sunny 90 32.1 67 19.3 47 47 SSE 5 7 30.09 1019 10 16.0934 0 0
1:55 pm 13:55 Sunny 90 32.1 66 18.8 45 45 Calm 30.09 1019 10 16.0934 0 0
2:15 pm 14:15 Sunny 90 32.1 65 18.3 44 44 N 3 6 30.09 1019 10 16.0934 0 0
2:35 pm 14:35 Sunny 90 32.1 65 18.6 45 45 Calm 30.09 1019 10 16.0934 0 0
2:55 pm 14:55 Sunny 90 32.1 66 18.8 45 45 NE 3 6 30.09 1019 10 16.0934 0 0
3:15 pm 15:15 Partly Cloudy 90 32.1 66 19.1 46 46 NNE 3 6 30.06 1018 10 16.0934 0 0
3:35 pm 15:35 Partly Cloudy 90 32.1 65 18.5 44 44 ESE 3 6 30.06 1018 10 16.0934 0 0
3:55 pm 15:55 Partly Cloudy 90 32.1 67 19.3 47 47 ENE 5 7 30.06 1018 10 16.0934 0 0
4:15 pm 16:15 Sunny 90 32.1 65 18.3 44 44 Calm 30.06 1018 10 16.0934 0 0
4:35 pm 16:35 Sunny 90 32.1 66 19 46 46 Calm 30.06 1018 10 16.0934 0 0
4:55 pm 16:55 Sunny 90 32.1 65 18.5 44 44 Calm 30.06 1018 10 16.0934 0 0
5:15 pm 17:15 Sunny 90 32.1 64 17.9 43 43 NE 5 7 30.03 1017 10 16.0934 0 0
5:35 pm 17:35 Sunny 90 32.1 64 17.5 42 42 Calm 30.03 1017 10 16.0934 0 0
5:55 pm 17:55 Partly Cloudy 90 32.1 66 19.1 46 46 NE 6 9 30.03 1017 10 16.0934 0 0
6:15 pm 18:15 Mostly Cloudy 90 32.1 67 19.6 48 48 N 6 9 30.03 1017 10 16.0934 0 0
6:35 pm 18:35 Mostly Cloudy 83 28.3 63 17.3 51 51 NNW 14 22 30.09 1019 10 16.0934 0 0
6:55 pm 18:55 Partly Cloudy 80 26.5 66 19.1 64 64 N 8 13 30.09 1019 10 16.0934 0 0
7:15 pm 19:15 Sunny 80 26.5 67 19.7 66 66 SSE 5 7 30.09 1019 10 16.0934 0 0
7:35 pm 19:35 Sunny 80 26.5 68 19.9 67 67 WSW 3 6 30.09 1019 10 16.0934 0 0
7:55 pm 19:55 Sunny 77 25.1 68 20.1 74 74 Calm 30.09 1019 10 16.0934 0 0
8:15 pm 20:15 Clear 76 24.7 69 20.6 78 78 Calm 30.09 1019 10 16.0934 0 0
8:35 pm 20:35 Clear 75 23.7 68 19.9 79 79 SW 6 9 30.09 1019 10 16.0934 0 0
8:55 pm 20:55 Clear 74 23.6 69 20.3 82 82 SSW 5 7 30.09 1019 10 16.0934 0 0
9:15 pm 21:15 Clear 74 23.6 68 19.8 79 79 SW 5 7 30.09 1019 10 16.0934 0 0
9:35 pm 21:35 Clear 74 23.6 69 20.6 83 83 SSW 5 7 30.12 1020 10 16.0934 0 0
9:55 pm 21:55 Clear 74 23.6 68 20 80 80 SW 5 7 30.12 1020 10 16.0934 0 0
10:15 pm 22:15 Clear 74 23.6 69 20.4 82 82 Calm 30.12 1020 10 16.0934 0 0
10:35 pm 22:35 Clear 74 23.6 70 20.9 85 85 Calm 30.12 1020 10 16.0934 0 0
10:55 pm 22:55 Clear 72 22.3 68 20 87 87 Calm 30.12 1020 7 11.26538 0 0
11:15 pm 23:15 Clear 69 20.8 65 18.6 87 87 Calm 30.12 1020 7 11.26538 0 0
11:35 pm 23:35 Clear 69 20.8 65 18.6 87 87 Calm 30.12 1020 10 16.0934 0 0
11:55 pm 23:55 Clear 69 20.8 65 18.5 87 87 NNE 5 7 30.12 1020 10 16.0934 0 0

Powered by AerisWeather